CW7222 Mataro ES current weather conditions

sailwx.info

Wind from 192 at 4 knots gusting 6

Air temperature 24.4° C
Dewpoint 18.6° C

Last reported at 2020-Aug-03 17:03 UTC.
Time now 2020-Aug-03 17:19 UTC

Location: N 41°33' E 002°28'.
View on Google Maps.

See reports from other nearby stations

  
Tides and Currents Weather Stations Pressure Air Temp Water Temp Dewpoint Dewpoint Depression Visibility Wind Speed Wind Dir Waves Ship Positions
date/time (UTC)wind fromknots sea level pressurealtimeterstation pressurevisibilityair tempwater tempwave heightnotes
2020-Aug-03 17:03 192 4 gusting 6 24.4
2020-Aug-03 16:53 194 4 gusting 6 24.4
2020-Aug-03 16:43 169 5 gusting 9 25.0
2020-Aug-03 16:33 178 3 gusting 8 25.6
2020-Aug-03 16:23 183 3 gusting 6 25.0
2020-Aug-03 16:13 234 2 gusting 6 25.0
2020-Aug-03 16:03 175 3 gusting 6 25.0
2020-Aug-03 15:53 198 5 gusting 7 25.0
2020-Aug-03 15:43 229 3 gusting 8 25.6
2020-Aug-03 15:33 167 5 gusting 9 25.6
2020-Aug-03 15:23 192 4 gusting 7 25.6
2020-Aug-03 15:13 204 6 gusting 7 25.0
2020-Aug-03 15:03 191 3 gusting 6 25.0
2020-Aug-03 14:53 194 3 gusting 8 25.6
2020-Aug-03 14:43 196 3 gusting 10 25.6
2020-Aug-03 14:33 057 4 gusting 8 25.6
2020-Aug-03 14:23 054 5 gusting 8 25.0
2020-Aug-03 14:13 053 5 gusting 8 25.0
2020-Aug-03 14:03 054 5 gusting 7 25.0
2020-Aug-03 13:53 051 3 gusting 8 25.0
2020-Aug-03 13:43 060 3 gusting 9 25.6
2020-Aug-03 13:33 068 4 gusting 9 25.6
2020-Aug-03 13:23 048 4 gusting 9 25.0
2020-Aug-03 13:13 059 6 gusting 10 25.0
2020-Aug-03 13:03 066 6 gusting 11 25.6
2020-Aug-03 12:53 069 5 gusting 10 25.6
2020-Aug-03 12:43 053 5 gusting 9 25.0
2020-Aug-03 12:33 061 4 gusting 7 24.4
2020-Aug-03 12:23 063 4 gusting 6 24.4
2020-Aug-03 12:13 069 2 gusting 6 24.4
2020-Aug-03 12:03 057 4 gusting 8 24.4
2020-Aug-03 11:53 054 2 gusting 6 24.4
2020-Aug-03 11:43 054 2 gusting 6 24.4
2020-Aug-03 11:33 055 4 gusting 6 24.4
2020-Aug-03 11:23 055 3 gusting 6 24.4
2020-Aug-03 11:13 048 2 gusting 6 23.9
2020-Aug-03 11:03 053 3 gusting 6 23.9
2020-Aug-03 10:53 054 3 gusting 6 23.9
2020-Aug-03 10:43 052 2 gusting 6 23.9
2020-Aug-03 10:33 076 4 gusting 6 23.9
2020-Aug-03 10:23 057 1 gusting 5 23.9
2020-Aug-03 10:13 056 1 gusting 6 23.9
2020-Aug-03 10:03 056 2 gusting 6 23.3
2020-Aug-03 09:53 058 2 gusting 4 23.9
2020-Aug-03 09:43 059 1 gusting 5 23.3
2020-Aug-03 09:33 062 3 gusting 5 23.3
2020-Aug-03 09:23 067 1 gusting 4 23.3
2020-Aug-03 09:13 075 1 gusting 6 22.8
2020-Aug-03 09:03 078 0 gusting 3 22.8
2020-Aug-03 08:53 227 0 gusting 4 22.2
2020-Aug-03 08:43 229 1 gusting 3 22.2
2020-Aug-03 08:33 291 0 gusting 2 21.7
2020-Aug-03 08:23 296 21.1
2020-Aug-03 08:13 321 20.6
2020-Aug-03 08:03 336 20.6
2020-Aug-03 07:53 328 0 gusting 2 20.0
2020-Aug-03 07:43 343 20.0
2020-Aug-03 07:33 343 20.0
2020-Aug-03 07:23 338 0 gusting 3 20.0
2020-Aug-03 07:13 330 1 gusting 3 20.0
2020-Aug-03 07:03 010 20.6
2020-Aug-03 06:53 010 20.6
2020-Aug-03 06:43 010 20.6
2020-Aug-03 06:33 010 20.6
2020-Aug-03 06:23 010 20.6
2020-Aug-03 06:13 351 20.6
2020-Aug-03 06:03 037 20.6
2020-Aug-03 05:53 056 20.0
2020-Aug-03 05:43 090 20.0
2020-Aug-03 05:33 015 20.0
2020-Aug-03 05:23 015 20.6
2020-Aug-03 05:14 311 20.6
2020-Aug-03 05:03 312 21.1
2020-Aug-03 04:53 326 21.7
2020-Aug-03 04:43 326 21.7
2020-Aug-03 04:33 327 21.7
2020-Aug-03 04:23 325 21.7
2020-Aug-03 04:13 325 0 gusting 1 21.7
2020-Aug-03 04:03 336 21.7
2020-Aug-03 03:53 336 0 gusting 2 22.2
2020-Aug-03 03:43 041 22.2
2020-Aug-03 03:33 042 22.2
2020-Aug-03 03:23 042 22.2
2020-Aug-03 03:13 042 22.2
2020-Aug-03 03:03 041 22.2
2020-Aug-03 02:53 042 21.7
2020-Aug-03 02:43 042 21.7
2020-Aug-03 02:33 041 21.7
2020-Aug-03 02:23 041 21.7
2020-Aug-03 02:13 042 21.7
2020-Aug-03 02:03 042 21.7
2020-Aug-03 01:53 042 22.2
2020-Aug-03 01:43 042 22.2
2020-Aug-03 01:33 042 0 gusting 3 22.2
2020-Aug-03 01:23 040 22.2
2020-Aug-03 01:13 095 1 gusting 4 22.2
2020-Aug-03 01:04 132 0 gusting 6 22.2
2020-Aug-03 00:53 072 1 gusting 6 22.2
2020-Aug-03 00:43 095 0 gusting 4 22.8
2020-Aug-03 00:33 083 0 gusting 5 23.9
2020-Aug-03 00:23 048 0 gusting 3 23.9
2020-Aug-03 00:13 125 23.9
2020-Aug-03 00:03 130 24.4
2020-Aug-02 23:53 130 24.4
2020-Aug-02 23:43 129 24.4
2020-Aug-02 23:33 129 24.4
2020-Aug-02 23:23 130 24.4
2020-Aug-02 23:13 130 24.4
2020-Aug-02 23:03 178 25.0
2020-Aug-02 22:53 227 25.0
2020-Aug-02 22:43 278 0 gusting 2 25.0
2020-Aug-02 22:33 192 25.0
2020-Aug-02 22:23 192 25.6
2020-Aug-02 22:13 165 0 gusting 5 25.6
2020-Aug-02 22:03 175 25.6
2020-Aug-02 21:53 176 2 gusting 5 25.6
2020-Aug-02 21:43 183 2 gusting 6 26.1
2020-Aug-02 21:33 176 2 gusting 6 26.1
2020-Aug-02 21:23 183 0 gusting 6 26.1
2020-Aug-02 21:13 190 3 gusting 6 26.1
2020-Aug-02 21:03 181 3 gusting 7 26.1
2020-Aug-02 20:53 206 2 gusting 5 26.1
2020-Aug-02 20:43 179 1 gusting 5 26.1
2020-Aug-02 20:33 180 2 gusting 6 26.1
2020-Aug-02 20:23 178 0 gusting 6 26.1
2020-Aug-02 20:13 186 2 gusting 6 26.1
2020-Aug-02 20:03 211 3 gusting 6 26.1
2020-Aug-02 19:53 166 3 gusting 6 26.1
2020-Aug-02 19:43 175 4 gusting 6 26.1
2020-Aug-02 19:33 175 3 gusting 7 26.1
2020-Aug-02 19:23 181 2 gusting 6 26.1
2020-Aug-02 19:13 186 3 gusting 6 26.7
2020-Aug-02 19:03 188 2 gusting 6 26.7
2020-Aug-02 18:53 187 3 gusting 6 26.7
2020-Aug-02 18:43 185 4 gusting 6 26.7
2020-Aug-02 18:33 200 3 gusting 7 26.7
2020-Aug-02 18:23 182 4 gusting 6 26.7
2020-Aug-02 18:13 198 3 gusting 6 26.7
2020-Aug-02 18:03 069 3 gusting 7 26.7
2020-Aug-02 17:53 068 4 gusting 8 27.2
2020-Aug-02 17:43 067 4 gusting 7 27.2
2020-Aug-02 17:33 106 5 gusting 8 27.2
2020-Aug-02 17:23 119 3 gusting 8 27.2
2020-Aug-02 17:13 109 3 gusting 7 27.2
2020-Aug-02 17:03 107 4 gusting 7 27.2
2020-Aug-02 16:53 105 4 gusting 9 27.2
2020-Aug-02 16:43 122 5 gusting 8 27.8
2020-Aug-02 16:33 117 2 gusting 8 27.2
2020-Aug-02 16:23 122 4 gusting 8 27.8
2020-Aug-02 16:13 138 5 gusting 9 27.8
2020-Aug-02 16:03 137 5 gusting 9 27.8
2020-Aug-02 15:53 129 6 gusting 11 28.3
2020-Aug-02 15:43 149 5 gusting 10 28.3
2020-Aug-02 15:33 123 6 gusting 9 28.3
2020-Aug-02 15:23 142 3 gusting 10 28.3
2020-Aug-02 15:13 126 5 gusting 9 28.3
2020-Aug-02 15:04 121 6 gusting 11 28.3
2020-Aug-02 14:53 124 6 gusting 10 28.3
2020-Aug-02 14:43 138 6 gusting 9 28.9
2020-Aug-02 14:33 117 3 gusting 8 28.9
2020-Aug-02 14:23 155 5 gusting 11 28.9
2020-Aug-02 14:13 159 3 gusting 9 28.9
2020-Aug-02 14:03 130 6 gusting 9 28.9
2020-Aug-02 13:53 129 6 gusting 8 28.9
2020-Aug-02 13:43 138 6 gusting 10 28.9
2020-Aug-02 13:33 123 6 gusting 13 28.9
2020-Aug-02 13:23 125 6 gusting 11 28.9
2020-Aug-02 13:13 150 6 gusting 11 28.3
2020-Aug-02 13:03 150 8 gusting 13 28.9
2020-Aug-02 12:53 130 7 gusting 12 28.3
2020-Aug-02 12:43 133 6 gusting 13 28.9
2020-Aug-02 12:33 171 6 gusting 12 30.0
2020-Aug-02 12:23 118 6 gusting 12 29.4
2020-Aug-02 12:13 144 7 gusting 11 28.9
2020-Aug-02 12:03 120 6 gusting 11 29.4
2020-Aug-02 11:53 118 6 gusting 12 28.9
2020-Aug-02 11:43 138 6 gusting 10 28.9
2020-Aug-02 11:33 117 6 gusting 9 28.9
2020-Aug-02 11:23 107 4 gusting 7 28.9
2020-Aug-02 11:13 117 2 gusting 7 28.9
2020-Aug-02 11:03 081 1 gusting 6 28.3
2020-Aug-02 10:53 122 4 gusting 6 28.3
2020-Aug-02 10:43 125 2 gusting 6 28.3
2020-Aug-02 10:33 113 2 gusting 6 28.3
2020-Aug-02 10:23 111 0 gusting 6 27.8
2020-Aug-02 10:13 126 2 gusting 6 27.2
2020-Aug-02 10:03 099 1 gusting 6 27.8
2020-Aug-02 09:53 117 2 gusting 6 28.3
2020-Aug-02 09:43 116 0 gusting 4 27.8
2020-Aug-02 09:33 094 27.8
2020-Aug-02 09:23 119 2 gusting 6 27.8
2020-Aug-02 09:13 096 0 gusting 6 27.8
2020-Aug-02 09:03 125 3 gusting 6 27.2
2020-Aug-02 08:53 107 1 gusting 3 27.8
2020-Aug-02 08:43 103 1 gusting 6 27.2
2020-Aug-02 08:33 110 0 gusting 6 27.2
2020-Aug-02 08:23 107 0 gusting 6 27.2
2020-Aug-02 08:13 118 1 gusting 6 27.2
2020-Aug-02 08:03 120 1 gusting 4 27.2
2020-Aug-02 07:53 123 1 gusting 3 27.2
2020-Aug-02 07:43 126 0 gusting 3 27.2
2020-Aug-02 07:33 125 0 gusting 2 27.2
2020-Aug-02 07:23 127 0 gusting 2 27.2
2020-Aug-02 07:13 130 0 gusting 4 27.2
2020-Aug-02 07:03 052 27.2
2020-Aug-02 06:53 051 27.8
2020-Aug-02 06:43 051 27.2
2020-Aug-02 06:33 051 27.2
2020-Aug-02 06:23 051 27.2
2020-Aug-02 06:13 057 26.1
2020-Aug-02 06:03 056 26.1
2020-Aug-02 05:53 058 25.6
2020-Aug-02 05:43 058 25.6
2020-Aug-02 05:33 080 26.1
2020-Aug-02 05:23 079 26.1
2020-Aug-02 05:13 271 2 gusting 8 26.1
2020-Aug-02 05:03 013 6 gusting 10 26.1
2020-Aug-02 04:53 336 5 gusting 7 26.1
2020-Aug-02 04:43 318 4 gusting 8 26.1
2020-Aug-02 04:33 351 3 gusting 7 26.1
2020-Aug-02 04:23 334 4 gusting 7 26.1
2020-Aug-02 04:13 317 2 gusting 4 25.6
2020-Aug-02 04:03 320 1 gusting 4 25.6
2020-Aug-02 03:53 304 1 gusting 3 25.6
2020-Aug-02 03:43 301 1 gusting 3 25.6
2020-Aug-02 03:33 322 2 gusting 5 25.6
2020-Aug-02 03:23 289 0 gusting 3 25.6
2020-Aug-02 03:13 295 1 gusting 4 25.6
2020-Aug-02 03:03 309 1 gusting 5 25.6
2020-Aug-02 02:53 333 2 gusting 4 25.6
2020-Aug-02 02:43 348 2 gusting 4 25.6
2020-Aug-02 02:33 350 2 gusting 4 25.6
2020-Aug-02 02:23 347 2 gusting 4 25.0
2020-Aug-02 02:13 321 1 gusting 3 25.0
2020-Aug-02 02:03 326 1 gusting 3 25.0
2020-Aug-02 01:53 336 2 gusting 4 25.0
2020-Aug-02 01:43 340 1 gusting 3 25.0
2020-Aug-02 01:33 334 1 gusting 3 25.6
2020-Aug-02 01:03 337 0 gusting 3 25.6
2020-Aug-02 00:53 341 1 gusting 4 25.6
2020-Aug-02 00:43 345 1 gusting 2 25.6
2020-Aug-02 00:33 346 1 gusting 3 25.6
2020-Aug-02 00:23 355 1 gusting 3 25.6
2020-Aug-02 00:13 070 26.1
2020-Aug-02 00:03 071 26.1
2020-Aug-01 23:53 071 26.7
2020-Aug-01 23:43 071 26.7
2020-Aug-01 23:33 071 26.7
2020-Aug-01 23:23 071 26.7
2020-Aug-01 23:13 071 26.7
2020-Aug-01 23:03 071 0 gusting 2 26.7
2020-Aug-01 22:53 071 26.7
2020-Aug-01 22:43 072 26.7
2020-Aug-01 22:33 070 0 gusting 2 26.7
2020-Aug-01 22:23 067 26.7
2020-Aug-01 22:13 057 27.2
2020-Aug-01 22:03 065 1 gusting 6 27.2
2020-Aug-01 21:53 057 26.7
2020-Aug-01 21:43 347 27.2
2020-Aug-01 21:33 347 27.2
2020-Aug-01 21:23 345 27.2
2020-Aug-01 21:13 345 27.2
2020-Aug-01 21:03 344 26.7
2020-Aug-01 20:53 340 26.1
2020-Aug-01 20:43 340 26.7
2020-Aug-01 20:33 340 27.2
2020-Aug-01 20:23 340 27.2
2020-Aug-01 20:13 340 27.2
2020-Aug-01 20:03 340 27.2
2020-Aug-01 19:53 340 27.2
2020-Aug-01 19:43 340 27.2
2020-Aug-01 19:33 338 2 gusting 2 27.2
2020-Aug-01 19:23 205 27.8
2020-Aug-01 19:13 195 28.3
2020-Aug-01 19:03 220 28.3
2020-Aug-01 18:53 194 28.9
2020-Aug-01 18:43 211 28.9
2020-Aug-01 18:33 237 28.9
2020-Aug-01 18:23 245 28.9
2020-Aug-01 18:13 246 0 gusting 3 28.9
2020-Aug-01 18:03 216 1 gusting 4 28.9
2020-Aug-01 17:54 195 0 gusting 4 28.9
2020-Aug-01 17:43 200 0 gusting 3 29.4
2020-Aug-01 17:33 194 0 gusting 2 29.4
2020-Aug-01 17:23 183 0 gusting 3 28.9
2020-Aug-01 17:13 182 2 gusting 4 29.4
2020-Aug-01 17:03 183 0 gusting 5 29.4